User: anonymous   Login
Location: Elstree
(51.6403°N, 0.2969°W)
Time: 14:57:41
(UTC+00:00)
Language:

Gbstr 26 Del rocket - Orbit

View from above orbital plane
View from above orbital plane
View from above satellite
View from above satellite

Ground track
Ground track

The orbit data is extracted from the following two-line orbital elements,

1 25876U 99041E   21129.20363797 -.00000147  00000-0  14663-4 0  9990
2 25876  51.7655 104.2551 0530686 214.1856 142.3821 14.04568598114403
Epoch (UTC): 09 May 2021 04:53:14
Eccentricity: 0.0530686
inclination: 51.7655°
perigee height: 493 km
apogee height: 1263 km
right ascension of ascending node: 104.2551°
argument of perigee: 214.1856°
revolutions per day: 14.04568598
mean anomaly at epoch: 142.3821°
orbit number at epoch: 11440

The dashed part of the orbit path shows where the satellite is in the earth's shadow,  

DLR